Regional Weather Roundup
Issued by NWS

Home | Current Version | Previous Version | Graphics & Text | Print | Product List | Glossary On
Versions: 1 2 3 4 5 6 7 8 9 10 11 12 13 14 15 16 17 18 19 20 21 22 23 24 25 26 27 28 29 30 31 32 33 34 35 36 37 38 39 40 41 42 43 44 45 46 47 48 49
000
ASUS43 KMPX 210501
RWRMN
WEATHER ROUNDUP FOR MINNESOTA
NATIONAL WEATHER SERVICE TWIN CITIES/CHANHASSEN MN
1100 PM CST MON FEB 20 2017


NOTE: "FAIR" INDICATES FEW OR NO CLOUDS BELOW 12,000 FEET WITH NO
SIGNIFICANT WEATHER AND/OR OBSTRUCTIONS TO VISIBILITY. N/A MEANS
CURRENT SKY AND/OR WEATHER CONDITIONS ARE NOT AVAILABLE.

MNZ060>063-068>070-210600-
   Twin Cities Metro

CITY           SKY/WX    TMP DP  RH WIND       PRES   REMARKS
TWIN CITIES    CLOUDY    43  39  86 W15       29.80R
ST PAUL        CLOUDY    43  41  93 NW13      29.80R
CRYSTAL        CLOUDY   N/A N/A N/A W13G23    29.79R
BLAINE         CLOUDY    43  43 100 W13       29.79R
LAKEVILLE      CLOUDY    39  39 100 W13G18    29.81R
EDEN PRAIRIE   CLOUDY    41  38  89 W14G23    29.80R
SOUTH ST PAUL  CLOUDY    44  42  93 W13       29.79R
LAKE ELMO      CLOUDY    43  41  93 W14       29.79R
$$
MNZ001>005-007-008-013>017-022>024-027-028-210600-
   Northwest Minnesota

CITY           SKY/WX    TMP DP  RH WIND       PRES   REMARKS
BEMIDJI        CLOUDY    33  32  96 W12       29.71R WCI  24
HALLOCK        CLOUDY    30  30 100 CALM      29.71R FOG
ROSEAU         CLEAR     34  28  80 W9        29.68R WCI  26
WARROAD        CLOUDY    34  28  80 W13G21    29.66R WCI  25
THIEF RVR FALL CLOUDY    32  31  96 SW12      29.73R FOG     WCI  23
CROOKSTON      CLEAR     32  32 100 SW7       29.75R FOG     WCI  26
FOSSTON        FOG       30  30 100 SW13      29.75R VSB 1/4 WCI  20
DETROIT LAKES  CLEAR     34  34 100 W8        29.78R FOG     WCI  27
MOORHEAD       CLEAR     34  32  93 S6        29.79S FOG     WCI  29
PARK RAPIDS    CLOUDY    35  31  85 W12       29.73R WCI  27
MAHNOMEN       CLOUDY    32  32 100 SW8       29.75S FOG     WCI  25
$$
MNZ006-009>011-018-025>026-210600-
   North Central Minnesota

CITY           SKY/WX    TMP DP  RH WIND       PRES   REMARKS
BAUDETTE       CLOUDY    34  31  88 W15       29.64R WCI  24
FLAG ISLAND    CLOUDY    34  30  86 W18       29.61R WCI  23
INTL FALLS     CLOUDY    35  32  88 W10G22    29.60R WCI  27
WASKISH        CLOUDY    34  34 100 W12G17    29.68R WCI  25
BIG FORK       CLOUDY    36  34  93 W8        29.66R
LONGVILLE      CLOUDY    36  36 100 W9        29.71R
GRAND RAPIDS   CLOUDY    36  33  89 NW10      29.70R
CRANE LAKE     CLOUDY    37  37 100 CALM      29.60R
ORR            CLOUDY    36  34  93 W10G18    29.59R
COOK           CLOUDY    36  34  93 W14       29.62R
WALKER         CLOUDY    33  32  95 W12G17    29.71R WCI  25
$$
MNZ012-019>021-037-210600-
   Northeast Minnesota

CITY           SKY/WX    TMP DP  RH WIND       PRES   REMARKS
DULUTH         DRIZZLE   44  43  96 W20G26    29.60S
ELY            CLOUDY    43  43 100 W10       29.56S
HIBBING        CLOUDY    37  37 100 W9        29.64R
EVELETH        CLOUDY    40  39  97 W17G24    29.64R
DULUTH HARBOR  CLOUDY    39  37  93 CALM      29.62R FOG
TWO HARBORS    CLOUDY    46  41  81 W8        29.56F
SILVER BAY     RAIN      37  37 100 CALM      29.55F VSB 3/4
GRAND MARAIS     N/A     38  38 100 CALM      29.57F
G MARAIS ARPRT MIX PCPN  43  39  87 S9        29.55F VSB<1/4
$$
MNZ029>031-032-039>041-046>048-054>057-064-210600-
   West Central Minnesota

CITY           SKY/WX    TMP DP  RH WIND       PRES   REMARKS
FERGUS FALLS     N/A     32  32 100 W5        29.85R FOG     WCI  27
WHEATON        CLEAR     36  32  87 SW5       29.85R
MORRIS         CLEAR     34  34 100 W6        29.82R FOG     WCI  29
ALEXANDRIA     PTCLDY    35  34  96 W8        29.80R FOG     WCI  29
ELBOW LAKE     FAIR      33  33 100 SW7       29.82R FOG     WCI  27
WADENA         CLOUDY    34  34 100 W7        29.77R FOG     WCI  28
GLENWOOD       CLEAR     34  34 100 W12       29.82R FOG     WCI  25
APPLETON       CLEAR     36  34  93 SW7       29.84S FOG
BENSON         CLEAR     34  30  86 W3        29.85R FOG
ORTONVILLE     CLEAR     37  34  87 CALM      29.84R
WILLMAR        FAIR      36  36 100 W7        29.85R FOG
$$
MNZ033>034-036-042>043-049>051-058-059-210600-
   Central Minnesota

CITY           SKY/WX    TMP DP  RH WIND       PRES   REMARKS
ST CLOUD       CLOUDY    38  37  97 W12       29.79R
SAUK CENTRE    FAIR      33  32  97 W8        29.81R WCI  26
PAYNESVILLE    CLEAR     35  35 100 W6        29.82R WCI  30
AITKIN         CLOUDY    39  36  87 W6        29.70R
PINE RIVER     CLOUDY    36  36 100 W5        29.77R
BRAINERD       CLOUDY    36  35  96 W10       29.74R
STAPLES        CLOUDY    34  34 100 W9        29.76R WCI  26
LONG PRAIRIE   FAIR      34  34 100 SW7       29.79R WCI  28
LITTLE FALLS   CLOUDY    36  36 100 W8        29.79R
LITCHFIELD     CLEAR     37  36  93 W7        29.83R
BUFFALO        CLOUDY    39  37  90 W10G17    29.81S
MAPLE LAKE     CLOUDY    40  38  95 W10       29.81R
HUTCHINSON     CLEAR     37  36  98 W9        29.84R
$$
MNZ037-044-045-052-053-210600-
   East Central Minnesota

CITY           SKY/WX    TMP DP  RH WIND       PRES   REMARKS
PRINCETON      CLOUDY    41  37  87 W7G17     29.78R
MORA           CLOUDY    37  36  93 W9        29.76R
CAMBRIDGE      CLOUDY    43  41  93 W8G18     29.75R
RUSH CITY      CLOUDY    41  39  93 W9G20     29.75R
MOOSE LAKE     CLOUDY    41  37  87 W7        29.67R
HINCKLEY       CLOUDY    41  39  93 W12G18    29.72R
CLOQUET        CLOUDY    43  41  93 W15G21    29.64R
MCGREGOR       CLOUDY    37  36  93 W9G16     29.71R
$$
MNZ071>073-080-081-089-090-097-098-210600-
   Southwest Minnesota

CITY           SKY/WX    TMP DP  RH WIND       PRES   REMARKS
MONTEVIDEO     CLEAR     37  37 100 W6        29.87R
GRANITE FALLS  CLEAR     37  36  98 SW8       29.87R FOG
CANBY          CLEAR     40  37  89 SW8       29.87R
MARSHALL       CLEAR     37  35  92 W10       29.87R
REDWOOD FALLS  CLEAR     39  36  89 W9        29.85R
OLIVIA         CLEAR     34  32  93 W6        29.84R FOG     WCI  29
PIPESTONE      CLEAR     37  34  87 W7        29.88R
WINDOM         CLEAR     37  37 100 W8        29.88R
WORTHINGTON    CLEAR     39  37  92 W6        29.90R
JACKSON        CLEAR     37  36  93 W8        29.89R
TRACY          CLEAR     41  38  91 W6        29.87R
SLAYTON        CLEAR     39  37  93 W9        29.88S
$$
MNZ065>067-074>077-082>085-091>093-210600-
   South Central Minnesota

CITY           SKY/WX    TMP DP  RH WIND       PRES   REMARKS
MANKATO          N/A     41  38  89 W13       29.86R
NEW ULM        CLEAR     36  36 100 W8        29.86R FOG
ST JAMES       CLEAR     37  36  93 W5        29.88R
FAIRMONT       CLEAR     43  39  86 W12       29.87R
GLENCOE        CLEAR     39  39 100 W9        29.83R
FARIBAULT      CLOUDY    41  39  93 W9G17     29.84R
OWATONNA       MOCLDY    43  37  81 W13       29.85R
WASECA         CLEAR     39  36  87 W8        29.86S
ALBERT LEA     CLEAR     45  43  93 W10G18    29.86R
$$
MNZ078>079-086>088-094>096-210600-
   Southeast Minnesota

CITY           SKY/WX    TMP DP  RH WIND       PRES   REMARKS
ROCHESTER      CLOUDY    45  44  97 W23       29.82R
RED WING       CLOUDY    46  43  87 W15       29.78R
STANTON        CLOUDY    44  40  88 W17       29.81R
DODGE CENTER   CLOUDY    43  39  87 W16       29.83R
WINONA         CLOUDY    54  48  82 W7        29.79R
AUSTIN         MOCLDY    45  39  81 W9G20     29.85R
PRESTON        CLOUDY    46  43  90 W14       29.83R
$$
ABBREVIATIONS USED IN REMARKS
   TC - TEMPERATURES IN CELSIUS
  WCI - WIND CHILL INDEX
   HX - HEAT INDEX
  VSB - VISIBILITY
$$




USA.gov is the U.S. government's official web portal to all federal, state and local government web resources and services.